COSMOS 2251 DEB, 38197

Orbit data source: Space-Track

COSMOS 2251 DEB, 38197 is space debris in LEO originally from a launch on Wed, 16 Jun 1993 UTC launched from the Plesetsk Missile And Space Complex (PKMTR). The debris from Iridium 33, an American commercial communications satellite, has been tracked extensively since its accidental collision with the defunct Russian satellite Cosmos 2251 in 2009. This event, occurring at high speed in low Earth orbit (LEO), generated thousands of pieces of space debris, significantly increasing the risk of further collisions. The Iridium 33 debris cloud has impacted space traffic management and orbital debris mitigation strategies, making it a subject of ongoing study in space situational awareness.

Loading next visibility...
Identifier
38197, 1993-036BSM
Orbit
LEO
Country
Flag of CISCIS
Related business
Manufacturer
Unknown
Mission
Spacecraft
Bus & Motor
Unknown
Mass
Unknown
Launch date (UTC)
1993-06-16 (32 years ago)
Launch vehicle
Unknown
Launch site
Plesetsk Missile And Space Complex (PKMTR)
Object type
Payload
Rocket body
Debris
Shape & HBR
Unknown shape, 0.1 m
Radar Cross Section
Small (<0.1 m²)

Expand to show TLE details & history
Last TLE update: 5 hours ago

TLE from 5 hours ago
0 COSMOS 2251 DEB
1 38197U 93036BSM 25308.61376478  .00013939  00000-0  19884-2 0  9996
2 38197  73.9359  71.7190 0130826 316.8955  42.2026 14.71012978851941
Epoch: 2025-11-04T14:43Z
TLE epoch observation values (Epoch: 2025-11-04T14:43:49.276Z)
Latitude
-0.00009°
Longitude
166.66539°
Altitude
592.837 km
Speed
7.6 km/s
True Right ascension
04h 46m 52s
True Declination
0° 00' 00"
Sunlit
Object was in full shadow at epoch
Visualization orbit readout
Latitude
Unknown
Longitude
Unknown
Altitude
Unknown
Speed
Unknown
Apparent Right ascension
Unknown
Apparent Declination
Unknown
Sunlit
N/A
Visualization observer readout
Local Sidereal Time
15:46:30
Azimuth
Unknown
Elevation
Unknown
Doppler factor
Unknown
Orbital elements
Apogee altitude
747.447 km
Perigee altitude
563.412 km
Semi-major axis
7,033.567 km
Eccentricity
0.01308
Inclination
73.9359°
RAAN
71.719°
Arg. of periapsis
316.8955°
True anomaly
43.22195°
Mean anomaly
42.2026°
Eccentric anomaly
42.71104°
Mean motion
3.67942 °/min
Orbital period
97.84 mins
BSTAR
0.0019884

Documentation

Showing up to 5 results
|